Regional Weather Roundup
Issued by NWS

Home | Current Version | Previous Version | Graphics & Text | Print | Product List | Glossary On
Versions: 1 2 3 4 5 6 7 8 9 10 11 12 13 14 15 16 17 18 19 20 21 22 23 24 25 26 27 28 29 30 31 32 33 34 35 36 37 38 39 40 41 42 43 44 45 46 47 48 49 50
000
ASUS43 KIND 061659
RWRIN

WEATHER ROUNDUP FOR INDIANA
NATIONAL WEATHER SERVICE INDIANAPOLIS IN
1200 PM EST FRI MAR 06 2015

NOTE: "FAIR" INDICATES FEW OR NO CLOUDS BELOW 12,000 FEET WITH NO
SIGNIFICANT WEATHER AND/OR OBSTRUCTIONS TO VISIBILITY.

* - STATION DOES NOT REPORT WEATHER SUCH AS PRECIPITATION OR FOG.

+ - STATION NOT QUALITY CONTROLLED BY THE NATIONAL WEATHER SERVICE.
    USE DATA WITH CAUTION...ESPECIALLY DEWPOINT AND RELATIVE
    HUMIDITY OBSERVATIONS.

INZ001>003-010>013-019-020-061800-
NORTHWEST INDIANA

CITY           SKY/WX    TMP DP  RH WIND       PRES   REMARKS
GARY /AIRPORT/ MOSUNNY  N/A N/A N/A S12G29    30.41F
VALPARAISO     NOT AVBL

$$

LMZ046-743>745-061800-
SOUTHERN LAKE MICHIGAN

STATION/POSITION TIME  TEMP WIND        PRES
                       AIR  DIR/SP/G
                 (UTC) (F)  (DEG/KT/KT) (MB)
MICHIGAN CITY    1600   12  160/ 15/ 18   N/A

$$

INZ004-005-014>016-021>024-061800-
NORTH CENTRAL INDIANA

CITY           SKY/WX    TMP DP  RH WIND       PRES   REMARKS
GOSHEN         SUNNY     15   3  59 S21       30.43F WCI  -2
SOUTH BEND     SUNNY     17   4  56 SW14G20   30.42F WCI   3

$$

INZ006>009-017-018-025>027-061800-
NORTHEAST INDIANA

CITY           SKY/WX    TMP DP  RH WIND       PRES   REMARKS
ANGOLA *+      SUNNY     12  -2  52 SW12      30.42F WCI  -2
FORT WAYNE     MOSUNNY   17   7  64 SW16      30.47F WCI   2

$$

INZ028-029-035-036-043>045-051>053-061800-
WEST CENTRAL INDIANA

CITY           SKY/WX    TMP DP  RH WIND       PRES   REMARKS
CRAWFORDSVL +  SUNNY     18   2  50 S16       30.48F WCI   3
GREENCASTLE +  SUNNY     21   3  45 S12       30.49F WCI   9
LAFAYETTE      SUNNY     17   4  56 S13       30.47F WCI   4
TERRE HAUTE    SUNNY     21   8  57 S12       30.52F WCI   9

$$

INZ030>032-037>040-046>048-054>057-064-065-061800-
CENTRAL INDIANA

CITY           SKY/WX    TMP DP  RH WIND       PRES   REMARKS
ANDERSON       SUNNY     19   7  58 S17G29    30.50F WCI   4
GREENWOOD *+   SUNNY     21   7  53 S12       30.50F WCI   9
INDIANAPOLIS   MOSUNNY   20   8  60 S12       30.47F WCI   8
-EAGLE CREEK   SUNNY     21   8  57 SW10G17   30.48F WCI  10
KOKOMO *+        N/A    N/A N/A N/A MISG        N/A
MT COMFORT *+  SUNNY     19   1  45 S9        30.49F WCI   9
SHELBYVILLE    SUNNY     21   9  59 S15       30.51F WCI   8

$$

INZ033-034-041-042-049-050-058-059-061800-
EAST CENTRAL INDIANA

CITY           SKY/WX    TMP DP  RH WIND       PRES   REMARKS
MUNCIE         SUNNY     20   7  57 SW20      30.48F WCI   4

$$

INZ060-061-067>069-081>083-085>088-061800-
SOUTHWEST INDIANA

CITY           SKY/WX    TMP DP  RH WIND       PRES   REMARKS
EVANSVILLE     SUNNY     21  10  62 SW10      30.59F WCI  10
HUNTINGBURG *+ SUNNY     21   9  58 S8        30.57F WCI  12

$$

INZ062-063-066-070>080-084-089>092-061800-
SOUTH CENTRAL AND SOUTHEAST INDIANA

CITY           SKY/WX    TMP DP  RH WIND       PRES   REMARKS
BLOOMINGTON    SUNNY     23   9  55 S13       30.50F WCI  11
SEYMOUR +      SUNNY     25  10  54 S8        30.56F WCI  16

$$



USA.gov is the U.S. government's official web portal to all federal, state and local government web resources and services.